Humidity-temperature Sensor

Selected Measurement Type: Relative Humidity

 
Relative Humidity [%]     6 entries per hour
Showing data from 9/27/2022 (13:00:00 Z) to 9/24/2022 (00:01:00 Z)
Previous Next [ Day | 3-Days | 7-Days ]
First Last
Prev [ Day | 3-Days | 7-Days ] Next
First Last

Start Time:     :
End Time:     :     
Time (in GMT) :00 :50 :40 :30 :20 :10
Previous Next [ Day | 3-Days | 7-Days ]
First Last
Prev [ Day | 3-Days | 7-Days ] Next
First Last


123 => good data
MM => data is determined as missing
-- => data not received/configured
Back to Top Back to Top
9/27/2022 13:00 to 12:10 95.20 95.12 95.01 95.26 95.26 95.36
9/27/2022 12:00 to 11:10 95.34 95.52 95.50 95.68 95.94 95.88
9/27/2022 11:00 to 10:10 95.96 96.21 96.02 95.70 95.54 95.52
9/27/2022 10:00 to 9:10 95.50 95.64 96.06 96.29 96.39 96.67
9/27/2022 09:00 to 8:10 97.42 97.72 97.82 98.08 98.37 98.77
9/27/2022 08:00 to 7:10 98.95 98.89 98.73 98.51 98.25 97.96
9/27/2022 07:00 to 6:10 97.64 97.36 96.93 96.47 96.04 95.76
9/27/2022 06:00 to 5:10 95.24 95.01 94.67 94.33 94.13 93.86
9/27/2022 05:00 to 4:10 93.70 93.70 93.74 93.60 93.30 92.77
9/27/2022 04:00 to 3:10 92.63 93.26 94.17 93.96 93.68 93.98
9/27/2022 03:00 to 2:10 95.22 96.08 96.79 97.52 97.68 97.42
9/27/2022 02:00 to 1:10 96.81 95.20 94.63 94.77 95.26 94.91
9/27/2022 01:00 to 0:10 94.27 93.98 92.99 92.77 92.45 92.29
9/27/2022 00:00 to 23:10 92.07 92.55 92.47 92.61 93.62 94.43
9/26/2022 23:00 to 22:10 94.35 93.98 94.21 93.98 93.54 93.76
9/26/2022 22:00 to 21:10 93.96 94.11 94.49 94.69 94.31 94.65
9/26/2022 21:00 to 20:10 94.99 94.97 94.77 95.05 94.89 94.65
9/26/2022 20:00 to 19:10 94.79 95.24 95.62 95.98 95.94 95.80
9/26/2022 19:00 to 18:10 95.36 94.97 94.71 94.39 94.47 95.03
9/26/2022 18:00 to 17:10 96.11 96.45 96.59 96.63 96.47 96.31
9/26/2022 17:00 to 16:10 95.66 95.48 95.66 96.11 96.51 96.61
9/26/2022 16:00 to 15:10 96.69 96.06 94.63 93.80 93.62 93.42
9/26/2022 15:00 to 14:10 93.50 93.26 92.93 93.46 93.58 95.52
9/26/2022 14:00 to 13:10 98.02 98.43 98.35 98.08 98.10 97.98
9/26/2022 13:00 to 12:10 98.23 98.39 98.59 98.83 98.87 98.93
9/26/2022 12:00 to 11:10 97.66 96.87 96.45 96.25 96.41 96.65
9/26/2022 11:00 to 10:10 97.38 97.60 97.80 97.64 97.28 97.05
9/26/2022 10:00 to 9:10 97.09 97.16 97.30 97.72 98.15 98.55
9/26/2022 09:00 to 8:10 98.95 99.03 99.03 99.11 99.09 99.11
9/26/2022 08:00 to 7:10 98.99 98.87 98.69 98.47 98.23 98.00
9/26/2022 07:00 to 6:10 97.76 97.46 97.14 96.85 96.81 97.32
9/26/2022 06:00 to 5:10 97.68 98.06 98.25 98.31 98.33 98.33
9/26/2022 05:00 to 4:10 98.37 98.31 98.27 98.23 98.17 98.17
9/26/2022 04:00 to 3:10 98.15 98.02 97.84 97.62 97.34 96.81
9/26/2022 03:00 to 2:10 96.25 95.84 95.58 95.86 95.84 95.94
9/26/2022 02:00 to 1:10 96.04 95.60 94.77 94.63 96.33 96.19
9/26/2022 01:00 to 0:10 95.74 95.62 95.36 94.47 94.33 93.52
9/26/2022 00:00 to 23:10 93.32 93.40 93.28 93.30 92.79 92.73
9/25/2022 23:00 to 22:10 92.93 92.87 92.91 92.43 92.03 92.99
9/25/2022 22:00 to 21:10 94.53 94.95 94.97 95.05 95.30 95.14
9/25/2022 21:00 to 20:10 94.91 94.53 93.92 93.30 93.48 93.80
9/25/2022 20:00 to 19:10 93.94 93.54 93.62 93.40 93.54 93.66
9/25/2022 19:00 to 18:10 94.49 95.56 96.43 97.18 97.34 97.48
9/25/2022 18:00 to 17:10 97.24 96.89 97.30 97.40 97.94 98.04
9/25/2022 17:00 to 16:10 97.03 95.46 95.22 95.10 95.01 94.73
9/25/2022 16:00 to 15:10 94.57 94.97 95.92 96.33 96.35 95.98
9/25/2022 15:00 to 14:10 96.13 96.04 96.00 96.35 96.81 98.21
9/25/2022 14:00 to 13:10 98.71 98.37 98.35 98.53 98.91 99.34
9/25/2022 13:00 to 12:10 99.36 99.28 99.13 98.93 98.95 99.24
9/25/2022 12:00 to 11:10 99.24 98.55 97.96 97.48 97.20 97.20
9/25/2022 11:00 to 10:10 97.66 98.15 98.41 98.45 98.45 98.69
9/25/2022 10:00 to 9:10 99.11 98.61 98.33 98.10 97.94 97.74
9/25/2022 09:00 to 8:10 97.60 97.44 97.48 97.40 97.24 97.26
9/25/2022 08:00 to 7:10 97.36 97.40 97.30 97.26 97.24 97.44
9/25/2022 07:00 to 6:10 97.64 97.80 98.02 98.33 98.10 97.80
9/25/2022 06:00 to 5:10 97.03 96.25 96.02 96.31 96.59 97.18
9/25/2022 05:00 to 4:10 97.86 98.19 96.89 96.87 96.77 96.89
9/25/2022 04:00 to 3:10 96.89 96.99 96.89 96.97 97.20 97.78
9/25/2022 03:00 to 2:10 98.39 98.79 98.85 98.71 97.94 94.19
9/25/2022 02:00 to 1:10 93.50 94.15 93.84 93.08 92.21 92.03
9/25/2022 01:00 to 0:10 92.25 93.86 96.00 96.33 94.61 94.59
9/25/2022 00:00 to 23:10 94.17 93.96 93.74 93.30 92.93 92.49
9/24/2022 23:00 to 22:10 91.96 91.34 91.18 91.42 91.52 91.80
9/24/2022 22:00 to 21:10 91.98 91.94 91.82 91.60 91.42 91.14
9/24/2022 21:00 to 20:10 91.28 91.18 91.88 92.43 93.08 94.25
9/24/2022 20:00 to 19:10 94.33 92.51 91.82 93.04 93.08 92.61
9/24/2022 19:00 to 18:10 92.31 91.70 91.32 90.67 90.95 91.38
9/24/2022 18:00 to 17:10 92.25 93.10 93.40 92.87 92.27 91.44
9/24/2022 17:00 to 16:10 93.92 95.42 95.94 94.81 94.25 94.31
9/24/2022 16:00 to 15:10 94.23 94.53 94.77 94.35 94.39 93.90
9/24/2022 15:00 to 14:10 93.24 92.97 93.12 92.13 92.00 91.68
9/24/2022 14:00 to 13:10 91.52 91.54 91.16 90.29 90.75 92.09
9/24/2022 13:00 to 12:10 94.21 96.53 97.96 98.51 97.60 95.96
9/24/2022 12:00 to 11:10 96.19 95.96 96.19 96.63 96.63 96.39
9/24/2022 11:00 to 10:10 96.08 95.88 95.80 95.68 95.84 95.94
9/24/2022 10:00 to 9:10 96.11 96.19 96.23 96.45 96.93 97.30
9/24/2022 09:00 to 8:10 97.42 97.48 97.48 97.48 97.40 97.30
9/24/2022 08:00 to 7:10 97.20 97.22 97.07 96.89 96.75 96.61
9/24/2022 07:00 to 6:10 96.47 96.25 95.98 95.84 95.72 95.58
9/24/2022 06:00 to 5:10 95.50 95.36 95.28 95.05 95.16 95.12
9/24/2022 05:00 to 4:10 94.95 94.71 94.37 94.17 93.96 93.70
9/24/2022 04:00 to 3:10 93.80 93.88 93.96 93.84 93.88 93.54
9/24/2022 03:00 to 2:10 93.60 93.72 93.68 93.58 93.01 92.63
9/24/2022 02:00 to 1:10 92.55 92.53 92.33 91.84 91.56 91.80
9/24/2022 01:00 to 0:10 91.96 91.64 91.90 91.56 91.78 92.23